Flag for Nepal Weather past 2 weeks in Pokhara, Nepal

Now
68 °F

Light rain. Partly cloudy.


Feels Like: 68 °F
Forecast: 63 / 76 °F
Wind: 3 mph from Northeast

Location: Kathmandu Airport

Current Time: Jul 30, 2015 at 10:35:24 PM

Latest Report: Jul 30, 2015 at 9:35 PM


Visibility: 3 mi

Pressure: 29.86 "Hg (27.05 "Hg at 847m altitude)

Humidity: 100%

Dew point: 68 °F

Historic Weather in Pokhara — Graph

°F

Pokhara temperature yesterday

Maximum temperature yesterday: 84 °F (at 11:35 AM)
Minimum temperature yesterday: 70 °F (at 2:35 AM)
Average temperature yesterday: 74 °F

Past Weeks' High & Low Weather Summary

 TemperatureHumidityPressure
High86 °F (Jul 27, 1:35 PM)100% (Jul 15, 8:35 PM)29.98 "Hg (Jul 15, 8:35 PM)
Low66 °F (Jul 25, 7:35 PM)49% (Jul 27, 1:35 PM)29.68 "Hg (Jul 15, 8:35 PM)
Average74 °F84%29.83 "Hg
* Reported Jul 15 8:35 PM — Jul 30 8:35 PM, Pokhara, Weather by CustomWeather, © 2015

Note: Actual official high and low records may vary slightly from our data, if they occured in-between our weather recording intervals... More about our weather records

Advertising

Pokhara weather history for previous 24 hours

 ConditionsComfort  
Time TempWeatherWind HumidityBarometerVisibility
8:35 PM
Thu, Jul 30
68 °FRain. Partly cloudy.3 mph94%29.83 "Hg2 mi
7:35 PM68 °FHeavy rain. More clouds than sun.3 mph94%29.83 "Hg1 mi
6:35 PM68 °FLots of rain. More clouds than sun.8 mph94%29.77 "Hg1 mi
5:35 PM73 °FMore clouds than sun.2 mph89%29.77 "Hg5 mi
4:35 PM73 °FMore clouds than sun.5 mph89%29.77 "Hg4 mi
3:35 PM72 °FBroken clouds.7 mph94%29.77 "Hg4 mi
2:35 PM75 °FRain. Broken clouds.5 mph83%29.77 "Hg3 mi
1:35 PM79 °FRain. Broken clouds.16 mph70%29.77 "Hg4 mi
12:35 PM84 °FPassing clouds.8 mph58%29.77 "HgN/A
11:35 AM82 °FPassing clouds.5 mph66%29.80 "HgN/A
10:35 AM81 °FPassing clouds.6 mph70%29.80 "Hg5 mi
9:35 AM77 °FScattered clouds.No wind83%29.83 "Hg5 mi
8:35 AM75 °FScattered clouds.No wind78%29.83 "Hg4 mi
7:35 AM72 °FScattered clouds.5 mph88%29.83 "Hg4 mi
6:35 AM68 °FFog.No wind100%29.80 "Hg3 mi
5:35 AM68 °FFog.No wind100%29.77 "Hg2 mi
4:35 AM68 °FPassing clouds.No wind100%29.77 "Hg4 mi
3:35 AM68 °FFog.No wind100%29.80 "Hg2 mi
2:35 AM70 °FPartly cloudy.No wind94%29.83 "Hg2 mi
12:35 AM70 °FPartly cloudy.No wind94%29.86 "Hg2 mi
11:35 PM
Wed, Jul 29
70 °FThunderstorms. Mostly cloudy.5 mph94%29.86 "Hg2 mi
10:35 PM70 °FThunderstorms. Mostly cloudy.No wind94%29.86 "Hg2 mi
Weather by CustomWeather, © 2015

See weather overviewHow to use our weather pages